Location: Unspecified
(29.9680°N, 0.0000°E)
Time: 04:03:58
(UTC+00:00)

Courier 1B - Visible Passes

Search period start: 25 June 2019 00:00
Search period end: 05 July 2019 00:00
Orbit: 963 x 1209 km, 28.3° (Epoch: 23 June)

Date Brightness Start Highest point End Pass type
(mag) Time Alt. Az. Time Alt. Az. Time Alt. Az.
25 Jun 7.9 19:34:23 10° W 19:41:33 78° S 19:49:11 10° E visible
25 Jun 8.0 21:28:34 10° W 21:35:45 51° SSW 21:36:39 49° S visible
26 Jun 8.0 20:34:43 10° W 20:41:52 60° SSW 20:45:54 29° SE visible
26 Jun 9.3 22:29:32 10° W 22:32:47 22° WSW 22:32:47 22° WSW visible
27 Jun 7.9 19:40:56 10° W 19:47:59 67° SSW 19:55:11 11° ESE visible
27 Jun 8.5 21:35:23 10° W 21:41:59 36° SSW 21:42:03 36° SSW visible
28 Jun 8.3 20:41:24 10° W 20:48:11 43° SSW 20:51:22 29° SSE visible
28 Jun 9.9 22:37:20 10° WSW 22:38:14 12° WSW 22:38:14 12° WSW visible
29 Jun 8.1 19:47:33 10° W 19:54:21 52° SSW 20:00:41 14° SE visible
29 Jun 9.2 21:42:40 10° WSW 21:47:34 22° SW 21:47:34 22° SW visible
30 Jun 8.9 20:48:24 10° W 20:54:24 29° SSW 20:56:56 24° S visible
01 Jul 8.6 19:54:22 10° W 20:00:38 36° SSW 20:06:20 14° SE visible
01 Jul 9.8 21:51:28 10° SW 21:53:12 12° SW 21:53:12 12° SW visible
02 Jul 9.4 20:56:11 10° WSW 21:00:36 17° SSW 21:02:39 15° S visible
03 Jul 9.2 20:01:40 10° WSW 20:06:53 23° SSW 20:12:07 11° SSE visible
